User: anonymous   Login
Location: Caltech
(34.1382°N, 118.1253°W)
Time: 12:32:35
(UTC-08:00)
Language:

Iridium 14 - Orbit

View from above orbital plane
View from above orbital plane
View from above satellite
View from above satellite

Ground track
Ground track

The orbit data is extracted from the following two-line orbital elements,

1 25777U 99032A   15060.91310226  .00000027  00000-0  27488-5 0  9990
2 25777 086.3967 214.2994 0001789 104.1005 058.9250 14.34215036834526
Epoch (UTC): 01 March 2015 21:54:52
Eccentricity: 0.0001789
inclination: 86.3967°
perigee height: 776 km
apogee height: 779 km
right ascension of ascending node: 214.2994°
argument of perigee: 104.1005°
revolutions per day: 14.34215036
mean anomaly at epoch: 58.9250°
orbit number at epoch: 83452

The dashed part of the orbit path shows where the satellite is in the earth's shadow,  

DLR